Change the Weather History Date:

Friday, October 19, 2012

  Actual Average Record
Temperature  
Mean Temperature 55 °F 46 °F  
Max Temperature 59 °F 57 °F 78 °F (1963)
Min Temperature 51 °F 34 °F 16 °F (1974)
Degree Days  
Heating Degree Days 10 20  
Month to date heating degree days 283 312  
Since 1 July heating degree days 512 597  
Cooling Degree Days 0 0  
Month to date cooling degree days 0 0  
Year to date cooling degree days 533 351  
Growing Degree Days 5 (Base 50)    
Moisture  
Dew Point 55 °F    
Average Humidity 92    
Maximum Humidity 100    
Minimum Humidity 83    
Precipitation  
Precipitation 3.06 in 0.11 in 3.06 in (2012)
Month to date precipitation 4.16 2.18  
Year to date precipitation 30.19 31.37  
Sea Level Pressure  
Sea Level Pressure 29.82 in    
Wind  
Wind Speed 5 mph (NNE)    
Max Wind Speed 12 mph    
Max Gust Speed 14 mph    
Visibility 5 miles    
Events Fog , Rain    
T = Trace of Precipitation, MM = Missing Value Source: NWS Daily Summary

Daily Weather History Graph

Daily Weather History Graph

Search for Another Location

Airport or City:

Trip Planner

Search our weather history database for the weather conditions in past years. The results will help you decide how hot, cold, wet, or windy it might be!

Date:

Astronomy

Oct. 19, 2012 Rise Set
Actual Time 7:13 AM EDT 6:04 PM EDT
Civil Twilight 6:44 AM EDT 6:33 PM EDT
Nautical Twilight 6:11 AM EDT 7:06 PM EDT
Astronomical Twilight 5:38 AM EDT 7:39 PM EDT
Moon 12:00 PM EDT (10/19) 9:33 PM EDT (10/19)
Length of Visible Light 11h 48m
Length of Day
10h 50m
Waxing Crescent, 23% of the Moon is Illuminated
Oct 19
Waxing Crescent
Oct 21
First Quarter
Oct 29
Full
Nov 6
Last Quarter
Nov 13
New

Hourly Weather History & Observations

Time (EDT) Temp. Dew Point Humidity Pressure Visibility Wind Dir Wind Speed Gust Speed Precip Events Conditions
12:00 AM 51.8 °F 46.4 °F 82% 30.01 in 10.0 mi Calm Calm - N/A   Overcast
12:53 AM 51.1 °F 46.9 °F 86% 29.99 in 10.0 mi Calm Calm - N/A   Overcast
1:25 AM 51.8 °F 46.4 °F 82% 29.98 in 10.0 mi Calm Calm - N/A   Overcast
1:53 AM 52.0 °F 48.0 °F 86% 29.99 in 10.0 mi Calm Calm - 0.00 in Rain Light Rain
2:53 AM 52.0 °F 48.0 °F 86% 29.98 in 10.0 mi North 3.5 mph - 0.00 in   Overcast
3:53 AM 53.1 °F 48.0 °F 83% 29.93 in 10.0 mi NNE 3.5 mph - N/A   Overcast
4:53 AM 53.1 °F 48.9 °F 86% 29.93 in 10.0 mi Calm Calm - 0.00 in Rain Light Rain
5:49 AM 53.6 °F 51.8 °F 94% 29.93 in 3.0 mi North 3.5 mph - 0.06 in Rain Light Rain
5:53 AM 53.1 °F 52.0 °F 96% 29.94 in 3.0 mi North 4.6 mph - 0.07 in Rain Light Rain
6:53 AM 53.1 °F 52.0 °F 96% 29.96 in 4.0 mi NNW 9.2 mph - 0.10 in Rain Rain
7:04 AM 53.6 °F 53.6 °F 100% 29.96 in 2.5 mi WNW 8.1 mph - 0.06 in Rain Rain
7:24 AM 53.6 °F 53.6 °F 100% 29.94 in 2.5 mi NNE 10.4 mph - 0.20 in Rain Heavy Rain
7:35 AM 53.6 °F 53.6 °F 100% 29.94 in 3.0 mi NE 3.5 mph - 0.24 in Rain Rain
7:48 AM 53.6 °F 53.6 °F 100% 29.95 in 3.0 mi Calm Calm - 0.26 in Rain Light Rain
7:53 AM 53.1 °F 53.1 °F 100% 29.96 in 2.0 mi ENE 4.6 mph - 0.27 in Rain Rain
8:00 AM 53.6 °F 53.6 °F 100% 29.95 in 1.5 mi East 3.5 mph - 0.02 in Rain Light Rain
8:04 AM 53.6 °F 53.6 °F 100% 29.95 in 1.5 mi Calm Calm - 0.03 in Rain Light Rain
8:15 AM 53.6 °F 53.6 °F 100% 29.94 in 2.0 mi ENE 4.6 mph - 0.06 in Rain Rain
8:26 AM 53.6 °F 53.6 °F 100% 29.92 in 3.0 mi ENE 9.2 mph - 0.09 in Rain Rain
8:46 AM 53.6 °F 53.6 °F 100% 29.91 in 4.0 mi East 8.1 mph - 0.11 in Rain Light Rain
8:53 AM 54.0 °F 54.0 °F 100% 29.92 in 5.0 mi ENE 9.2 mph - 0.11 in Rain Light Rain
9:02 AM 53.6 °F 53.6 °F 100% 29.91 in 7.0 mi NE 8.1 mph - 0.00 in Rain Light Rain
9:53 AM 54.0 °F 54.0 °F 100% 29.89 in 1.8 mi NE 5.8 mph - 0.13 in Rain Heavy Rain
9:59 AM 53.6 °F 53.6 °F 100% 29.88 in 3.0 mi NNE 6.9 mph - 0.02 in Rain Light Rain
10:25 AM 53.6 °F 53.6 °F 100% 29.88 in 1.8 mi NE 5.8 mph - 0.12 in Rain Heavy Rain
10:38 AM 53.6 °F 53.6 °F 100% 29.87 in 3.0 mi NNE 9.2 mph - 0.17 in Rain Light Rain
10:45 AM 55.4 °F 53.6 °F 94% 29.87 in 6.0 mi NNE 6.9 mph - 0.17 in Rain Light Rain
10:53 AM 55.0 °F 55.0 °F 100% 29.88 in 6.0 mi NNE 6.9 mph - 0.18 in Rain Light Rain
11:31 AM 55.4 °F 55.4 °F 100% 29.86 in 1.8 mi North 6.9 mph - 0.11 in Rain Heavy Rain
11:39 AM 55.4 °F 55.4 °F 100% 29.86 in 1.2 mi North 8.1 mph - 0.16 in Rain Heavy Rain
11:45 AM 55.4 °F 55.4 °F 100% 29.85 in 2.0 mi North 9.2 mph - 0.18 in Rain Rain
11:53 AM 55.0 °F 55.0 °F 100% 29.86 in 3.0 mi North 9.2 mph - 0.21 in Rain Rain
12:13 PM 55.4 °F 55.4 °F 100% 29.83 in 2.5 mi North 9.2 mph - 0.07 in Rain Rain
12:34 PM 55.4 °F 55.4 °F 100% 29.82 in 1.8 mi North 6.9 mph - 0.18 in Rain Rain
12:43 PM 55.4 °F 55.4 °F 100% 29.81 in 2.5 mi NNE 8.1 mph - 0.20 in Rain Rain
12:53 PM 55.9 °F 55.9 °F 100% 29.81 in 2.5 mi North 5.8 mph - 0.24 in Rain Rain
1:05 PM 55.4 °F 55.4 °F 100% 29.80 in 1.8 mi North 4.6 mph - 0.05 in Rain Rain
1:21 PM 55.4 °F 55.4 °F 100% 29.80 in 2.0 mi North 5.8 mph - 0.11 in Rain Rain
1:34 PM 55.4 °F 55.4 °F 100% 29.79 in 1.2 mi NNE 3.5 mph - 0.20 in Rain Heavy Rain
1:53 PM 57.0 °F 55.9 °F 96% 29.80 in 1.8 mi NNE 6.9 mph - 0.32 in Rain Heavy Rain
2:00 PM 57.2 °F 57.2 °F 100% 29.78 in 3.0 mi NE 8.1 mph - 0.03 in Rain Rain
2:18 PM 57.2 °F 57.2 °F 100% 29.78 in 1.8 mi ENE 6.9 mph - 0.14 in Rain Heavy Rain
2:24 PM 57.2 °F 57.2 °F 100% 29.78 in 2.5 mi ENE 5.8 mph - 0.16 in Rain Rain
2:33 PM 57.2 °F 57.2 °F 100% 29.78 in 4.0 mi NNE 4.6 mph - 0.18 in Rain Rain
2:49 PM 57.2 °F 57.2 °F 100% 29.77 in 8.0 mi NNE 4.6 mph - 0.20 in Rain Light Rain
2:53 PM 57.9 °F 57.0 °F 97% 29.78 in 10.0 mi NNE 3.5 mph - 0.21 in Rain Light Rain
3:02 PM 57.2 °F 57.2 °F 100% 29.77 in 10.0 mi NNE 3.5 mph - 0.00 in   Mostly Cloudy
3:21 PM 57.2 °F 57.2 °F 100% 29.75 in 10.0 mi NE 4.6 mph - 0.00 in Rain Light Rain
3:53 PM 57.9 °F 57.9 °F 100% 29.75 in 7.0 mi ENE 3.5 mph - 0.01 in Rain Light Rain
4:06 PM 57.2 °F 57.2 °F 100% 29.73 in 1.8 mi NE 4.6 mph - 0.04 in Rain Rain
4:17 PM 57.2 °F 57.2 °F 100% 29.73 in 1.8 mi Calm Calm - 0.10 in Rain Heavy Rain
4:53 PM 59.0 °F 59.0 °F 100% 29.72 in 1.0 mi North 5.8 mph - 0.35 in Rain Heavy Rain
5:08 PM 59.0 °F 59.0 °F 100% 29.70 in 0.8 mi NNE 5.8 mph - 0.13 in Rain Heavy Rain
5:15 PM 59.0 °F 59.0 °F 100% 29.70 in 1.2 mi North 5.8 mph - 0.15 in Rain Rain
5:32 PM 59.0 °F 59.0 °F 100% 29.71 in 0.5 mi NW 3.5 mph - 0.32 in Fog , Rain Heavy Rain
5:49 PM 59.0 °F 59.0 °F 100% 29.70 in 1.8 mi North 4.6 mph - 0.49 in Rain Rain
5:53 PM 59.0 °F 59.0 °F 100% 29.71 in 1.8 mi North 4.6 mph - 0.54 in Rain Heavy Rain
6:04 PM 59.0 °F 59.0 °F 100% 29.72 in 1.8 mi WNW 6.9 mph - 0.09 in Rain Heavy Rain
6:19 PM 59.0 °F 59.0 °F 100% 29.71 in 2.5 mi Calm Calm - 0.15 in Rain Rain
6:34 PM 59.0 °F 59.0 °F 100% 29.71 in 3.0 mi Calm Calm - 0.18 in Rain Light Rain
6:53 PM 59.0 °F 59.0 °F 100% 29.72 in 4.0 mi NNE 4.6 mph - 0.21 in Rain Light Rain
7:12 PM 59.0 °F 59.0 °F 100% 29.70 in 10.0 mi NE 4.6 mph - 0.00 in Rain Light Rain
7:31 PM 57.2 °F 57.2 °F 100% 29.70 in 10.0 mi Calm Calm - 0.00 in   Overcast
7:53 PM 57.9 °F 57.9 °F 100% 29.71 in 10.0 mi ENE 3.5 mph - 0.00 in   Overcast
8:02 PM 57.2 °F 57.2 °F 100% 29.70 in 7.0 mi NE 4.6 mph - 0.00 in Rain Light Rain
8:14 PM 57.2 °F 57.2 °F 100% 29.70 in 5.0 mi ENE 4.6 mph - 0.00 in   Overcast
8:53 PM 57.9 °F 57.9 °F 100% 29.70 in 6.0 mi NNE 3.5 mph - 0.00 in   Overcast
9:31 PM 59.0 °F 59.0 °F 100% 29.69 in 9.0 mi Calm Calm - N/A   Overcast
9:53 PM 57.9 °F 57.9 °F 100% 29.69 in 9.0 mi North 3.5 mph - N/A   Overcast
10:53 PM 57.9 °F 57.9 °F 100% 29.69 in 10.0 mi NW 3.5 mph - N/A   Overcast
11:53 PM 57.9 °F 57.9 °F 100% 29.67 in 7.0 mi Calm Calm - 0.03 in Rain Rain